Location: Nandig?ma
(16.7717°N, 80.2860°E)
Time: 10:31:46
(UTC+00:00)

DMSP B5D2-2 - Pass Details

Date: 03 August 2024
Orbit: 787 x 802 km, 98.3° (Epoch: 15 September)

Event Time Altitude Azimuth Distance (km) Brightness Sun altitude
Exits shadow 23:02:45 - 181° (S) 3,073 6.9 -18.0°
Reaches altitude 10° 23:04:37 10° 186° (S) 2,356 6.2 -17.6°
Maximum altitude 23:09:36 47° 259° (W) 1,040 4.2 -16.5°
Drops below altitude 10° 23:14:35 10° 333° (NNW) 2,351 6.5 -15.5°
Sets 23:16:59 0° 339° (NNW) 3,278 7.3 -14.9°
